SCP
-0 -0 -0 -0 -0 -0 -0 -0 -0 -0 -0 -0 -0 -0 -0 -0 -0 -0 -0 -0 0 -0 0 -0 -0 0 0 0 0 0 0 0 0 -0 -0 0 0 0 0 0 0 0 0 0 0
-0 -0 -0 -0 -0 -0 -0 -0 -0 -0 -0 -0 -0 -0 -0 -0 -0 0 0 -0 0 -0 0 -0 0 0 0 0 0 0 0 -0 -0 0 -0 -0 0 0 0 0 0 0 0 0 0
0 0 0 -0 -0 0 0 0 0 0 0 0 -0 -0 -0 0 -0 0 0 -0 -0 -0 -0 -0 0 0 0 0 -0 -0 0 0 -0 -0 0 0 -0 0 -0 0 0 -0 0 0 0
0 0 0 0 0 0 0 0 0 0 0 0 0 0 0 -0 0 0 0 0 0 0 0 0 0 0 0 0 0 -0 -0 -0 -0 -0 0 -0 0 -0 0 0 0 -0 -0 0 0
0 0 0 0 0 0 0 0 0 0 0 0 0 0 0 0 0 0 0 0 0 0 0 -0 0 0 0 0 0 -0 0 0 -0 -0 0 0 0 0 0 0 0 0 -0 -0 0
0 0 0 0 0 0 0 0 0 0 0 0 0 0 0 0 0 0 0 0 0 0 0 -0 0 0 0 0 0 -0 0 0 0 -0 -0 -0 0 0 0 0 0 0 -0 0 0
0 0 0 0 0 0 0 0 0 0 0 0 0 0 0 0 0 0 0 0 0 0 -0 0 -0 0 0 0 0 0 -0 -0 0 -0 -0 -0 -0 0 0 0 -0 -0 0 0 -0
-0 -0 -0 -0 0 0 0 0 0 0 0 0 0 0 0 0 0 0 0 0 0 -0 0 0 0 0 0 0 0 0 0 -0 -0 -0 -0 0 0 0 0 0 0 0 0 0 0
-0 -0 -0 -0 -0 -0 -0 -0 0 0 -0 0 0 0 0 0 0 0 0 0 0 0 -0 0 0 0 0 0 0 0 -0 -0 -0 -0 -0 0 0 0 0 0 0 0 0 0 0
0 0 0 -0 -0 -0 -0 0 0 0 0 0 0 0 0 0 0 0 0 0 0 0 0 -0 0 0 0 0 0 0 0 -0 -0 -0 -0 0 0 0 0 0 0 0 1 1 1
0 0 -0 -0 -0 0 0 0 0 0 0 0 0 0 0 -0 -0 0 0 0 0 0 0 0 0 0 0 -0 -0 0 -0 0 0 0 0 0 0 -0 0 0 0 0 1 2 1
0 0 0 0 0 0 0 0 0 0 0 0 0 -0 0 0 0 0 0 0 0 0 -0 0 0 0 0 0 -0 -0 0 0 0 0 0 0 0 0 0 -0 0 0 1 1 2
0 0 0 0 0 0 0 0 0 0 0 0 0 0 0 0 0 0 0 0 0 0 0 0 0 -0 0 0 -0 0 0 0 0 0 0 0 0 0 0 -0 0 0 0 0 0
0 0 0 0 0 0 0 0 0 0 0 0 0 0 0 0 0 -0 -0 0 0 0 0 0 -0 -0 0 -0 -0 0 0 0 0 0 0 0 0 -0 0 0 0 0 0 1 -1
0 0 0 0 0 0 0 0 0 0 0 0 0 0 0 0 0 0 -0 -0 0 0 0 0 -0 -0 0 0 0 0 0 0 0 0 0 0 0 -0 -0 0 0 0 0 1 -2
0 0 -0 0 0 0 0 0 0 0 0 0 0 -0 0 -0 -0 0 0 0 0 0 0 0 0 0 0 0 0 0 0 0 0 0 0 -0 0 0 -0 0 0 0 0 1 0
0 0 -0 0 0 0 -0 0 0 0 0 -0 0 0 -0 0 -0 -0 -0 0 0 0 0 0 0 0 0 0 0 0 0 0 0 0 0 -0 0 -0 0 0 0 0 1 1 0
0 0 0 0 0 0 0 0 0 0 0 0 0 0 0 -0 0 -0 0 0 0 0 0 0 0 0 0 0 0 0 0 0 0 0 -0 0 0 -0 0 0 0 0 1 1 2
0 0 0 0 0 0 0 0 0 0 0 -0 -0 0 0 0 0 0 0 0 0 0 0 0 0 0 -0 0 0 0 0 0 0 0 0 0 0 0 -0 0 0 1 1 2 2
0 0 0 0 0 0 0 0 0 -0 0 -0 0 0 0 0 -0 -0 -0 0 0 0 0 0 0 0 0 -0 -0 0 0 0 0 0 0 -0 0 0 0 0 1 2 1 2 2
0 0 0 0 0 0 0 0 -0 0 -0 -0 0 0 0 0 0 0 0 0 -0 -0 0 0 0 0 0 0 0 0 0 0 0 0 0 0 0 0 0 0 0 1 2 1 0
0 0 0 0 0 0 0 0 0 -0 -0 0 0 0 -0 0 0 0 0 -0 0 0 0 0 0 0 -0 -0 -0 -0 0 0 0 0 -0 -0 -0 0 0 0 0 1 0 1 0
0 0 -0 0 0 0 0 0 0 0 -0 0 0 0 0 0 0 0 0 0 0 0 0 -0 0 0 0 0 0 0 -0 0 0 0 0 0 0 1 2 2 1 2 1 1 0
0 0 0 0 0 0 0 0 0 0 0 0 0 0 0 0 0 0 0 0 0 0 0 -0 0 0 0 0 0 0 0 0 0 0 0 0 0 2 1 0 1 1 1 -0 1
0 0 0 0 -0 -0 -0 0 -0 -0 0 0 0 0 0 0 0 0 0 0 0 -0 -0 -0 0 0 0 0 0 0 0 0 0 0 0 0 1 1 0 0 0 1 0 -0 -1
0 0 0 -0 0 -0 0 -0 -0 -0 0 -0 0 0 0 0 0 0 0 0 0 -0 -0 -0 0 0 0 0 -0 -0 0 0 0 0 0 0 1 0 0 2 2 -0 -0 1 0
0 0 0 0 0 0 0 -0 0 0 0 -0 0 0 0 0 0 0 0 -0 0 0 0 0 -0 -0 0 -0 -0 0 0 -0 0 0 -0 1 4 6 7 7 6 5 4 5 2
Wind_Speed_500mb
29 30 30 29 30 31 32 33 33 33 33 35 37 37 37 39 37 38 38 24 23 25 24 26 32 30 26 47 51 55 9 13 15 14 15 23 12 29 46 46 19 4 40 58 52
32 33 34 35 34 32 33 33 34 34 34 35 35 37 39 43 47 45 27 17 19 25 35 31 31 33 28 46 44 16 6 23 17 9 7 30 11 45 16 33 11 53 59 57 57
34 35 36 37 38 39 38 36 35 34 34 35 35 35 37 39 44 15 12 13 21 23 31 26 25 41 48 49 60 40 10 17 37 18 14 14 31 27 44 6 45 63 66 60 55
34 36 38 40 41 41 40 39 40 38 35 35 36 35 34 32 9 10 15 12 19 24 25 29 32 39 28 19 59 20 40 19 37 38 40 5 14 12 20 27 68 65 68 66 57
37 39 39 40 41 43 44 43 41 41 39 36 35 35 32 22 39 35 25 24 25 27 28 31 34 38 23 31 41 18 31 43 47 46 53 32 10 16 26 46 64 71 67 62 54
39 41 41 42 43 43 42 44 44 41 40 39 37 34 29 24 23 26 31 38 31 26 25 27 26 37 49 38 21 41 52 56 58 54 56 39 14 11 17 61 66 74 69 56 51
39 40 43 46 46 46 46 43 42 43 40 38 36 35 34 58 14 18 32 24 21 20 19 24 27 39 44 21 44 49 29 37 29 44 37 54 8 12 26 60 72 72 68 55 56
43 43 44 44 46 47 50 45 42 40 39 37 35 31 31 50 30 35 42 29 20 22 24 28 36 35 23 29 37 23 20 17 35 37 55 15 14 12 42 48 61 68 69 62 63
48 48 47 47 47 48 46 45 41 41 38 34 31 23 28 26 36 45 39 41 31 25 31 37 31 32 22 13 13 15 22 29 39 45 39 13 10 9 31 54 55 63 66 67 66
51 52 51 49 47 48 44 37 34 35 34 29 30 16 40 46 41 36 44 45 40 37 44 42 31 8 9 7 16 21 15 20 30 37 15 14 16 17 22 53 50 61 70 72 78
53 55 54 50 48 45 41 29 45 11 15 21 23 24 49 53 51 54 47 48 47 50 21 40 10 16 25 29 35 34 33 24 17 18 14 15 6 10 17 11 37 54 69 74 81
54 54 54 49 43 28 25 26 33 31 33 47 53 69 65 66 70 60 40 55 41 29 22 13 23 30 33 38 37 35 24 15 18 23 15 18 19 15 12 19 23 58 63 75 77
57 59 57 51 34 16 27 35 28 37 30 55 70 66 69 60 68 70 53 50 22 27 29 29 31 38 41 40 39 23 12 11 17 28 19 12 14 13 18 16 30 72 78 76 89
53 55 55 59 18 24 21 27 28 40 9 14 21 36 55 76 54 71 70 55 29 35 36 28 41 44 42 35 42 15 12 16 23 16 11 8 11 16 17 23 16 41 65 70 86
50 52 51 48 46 37 26 24 34 27 11 17 24 43 47 48 78 55 72 67 35 31 22 37 45 36 31 31 20 16 16 19 21 16 7 14 5 18 13 20 17 19 61 74 95
53 52 59 44 46 15 22 30 19 2 13 16 37 46 37 51 58 70 62 75 70 38 31 44 61 38 30 34 22 13 11 15 12 6 10 17 11 25 20 22 10 17 42 68 86
55 51 51 52 28 28 25 23 3 8 15 20 21 36 45 24 47 46 49 44 31 25 35 36 42 43 43 32 19 11 6 4 9 7 19 16 11 34 10 21 26 36 60 77 86
59 54 44 36 11 9 10 5 10 18 22 28 45 47 37 32 15 36 36 34 41 36 16 34 36 39 47 34 18 14 15 12 16 12 19 10 16 36 28 14 56 67 68 77 84
60 51 42 3 4 12 10 7 8 11 22 36 47 39 44 40 29 18 18 23 37 43 35 27 36 36 45 44 30 16 15 17 7 13 6 12 21 14 31 32 26 41 60 63 81
62 48 18 9 17 8 6 10 15 37 44 39 39 39 37 34 30 31 17 25 26 25 29 36 23 26 33 33 39 24 17 11 4 8 13 15 11 11 9 19 36 27 43 62 73
45 21 7 9 9 11 7 12 30 51 50 33 37 39 34 35 32 32 13 26 27 28 40 23 15 23 34 40 24 9 20 8 13 11 12 8 12 11 8 19 27 27 49 63 63
12 8 16 9 12 13 14 14 29 41 45 36 30 25 17 21 25 30 36 21 40 33 32 12 9 26 37 44 30 23 23 32 11 17 8 10 12 19 13 11 9 51 62 50 67
21 19 23 21 6 12 23 31 46 22 22 24 24 26 27 20 19 23 34 46 33 33 12 12 8 11 5 17 28 19 19 14 13 11 22 10 10 9 18 19 41 29 42 70 72
12 7 10 25 29 18 23 27 32 49 30 31 18 23 22 24 25 19 30 33 25 53 41 26 12 5 7 14 13 13 12 17 10 9 18 14 12 12 13 18 38 58 68 97 58
5 9 26 9 22 33 31 28 26 34 36 36 20 20 18 17 19 20 32 34 30 50 16 9 12 19 20 19 20 24 25 42 30 14 13 18 18 12 11 16 51 78 71 13 46
9 18 30 35 36 30 29 20 31 28 9 15 20 37 30 18 16 26 25 16 17 29 18 5 7 13 14 21 21 23 21 20 17 26 28 14 19 6 13 32 44 66 61 20 48
18 18 23 22 19 19 13 9 33 34 7 13 25 24 29 25 32 50 44 37 23 16 8 6 5 10 10 14 15 12 34 27 25 39 13 10 10 10 27 34 39 42 47 42 28
Wind_Direction_500mb
343 341 340 339 338 336 335 335 335 335 334 333 332 329 328 321 313 301 282 261 270 270 273 287 295 312 309 275 271 269 283 281 302 38 339 158 141 113 135 127 139 64 156 156 149
338 336 334 332 331 329 328 328 328 328 328 327 327 326 327 324 317 304 291 250 257 270 271 276 286 292 274 291 297 286 250 280 297 58 15 305 100 147 116 114 146 100 135 148 150
337 333 330 328 326 325 323 321 319 320 322 322 323 323 323 323 323 328 317 250 246 267 267 259 265 290 295 298 291 294 275 299 305 346 301 330 357 131 129 197 168 143 143 152 156
335 332 331 328 326 322 319 317 316 314 314 316 318 319 321 319 294 328 317 291 269 283 253 228 248 268 285 284 287 302 315 288 298 327 322 314 347 140 186 177 166 164 155 159 159
339 336 332 327 323 321 319 316 313 311 311 309 310 314 320 305 265 287 288 285 278 285 250 219 249 248 267 281 303 336 315 324 322 327 313 304 274 235 122 147 158 156 155 163 163
338 336 333 329 326 322 316 314 312 308 306 305 306 306 308 273 282 269 285 291 274 281 237 219 251 258 268 292 310 308 305 312 308 298 289 290 255 121 105 138 147 151 159 165 172
337 334 331 329 327 323 318 314 307 305 303 299 299 300 286 258 250 268 287 302 249 271 213 228 247 265 288 307 307 306 312 305 296 281 270 276 279 177 170 151 148 155 161 169 178
339 338 334 330 324 321 318 316 310 299 293 293 292 290 268 278 269 235 250 273 264 226 257 260 269 269 282 299 299 300 310 298 282 281 271 237 256 171 177 154 157 160 166 173 179
338 336 335 334 329 324 317 315 311 295 284 279 280 269 266 291 240 229 231 234 238 242 243 254 271 281 288 290 285 264 252 260 271 268 262 163 217 225 183 164 167 163 168 173 170
337 333 333 332 333 328 325 324 315 303 281 275 253 273 256 265 239 234 216 223 224 231 234 245 250 246 275 245 247 252 233 241 247 277 318 198 208 230 250 177 172 167 166 165 163
335 332 330 330 331 331 335 352 1 329 359 267 272 236 279 276 286 231 221 220 219 238 228 224 204 220 232 240 242 254 265 274 284 311 4 306 298 270 298 211 168 161 162 157 161
339 335 329 326 328 335 332 333 325 316 302 290 277 273 267 272 285 279 228 209 212 222 238 256 230 229 237 253 255 257 261 291 320 308 296 283 280 274 275 256 184 165 161 162 158
336 337 334 327 326 322 318 344 335 326 291 281 264 262 255 253 260 262 232 221 206 221 226 227 233 241 235 245 257 260 257 306 281 285 305 305 306 292 255 251 193 169 174 170 160
332 331 338 328 330 319 310 336 336 335 292 274 256 251 240 228 249 247 255 214 223 219 225 237 244 246 252 238 240 222 262 250 259 267 249 253 264 278 242 248 194 159 168 168 165
332 329 331 333 316 319 332 323 334 323 301 296 268 270 234 197 225 238 242 248 248 228 214 239 241 246 249 251 248 232 221 245 270 287 316 290 332 264 258 234 204 183 166 167 172
323 326 319 324 310 334 336 337 326 276 252 272 296 304 307 210 221 234 238 237 238 247 240 234 252 258 256 264 245 214 270 293 295 281 308 248 210 272 258 218 168 168 161 153 164
318 321 311 303 290 305 298 337 290 226 311 282 314 318 315 311 214 217 227 234 216 224 245 257 248 257 264 275 283 159 163 293 316 321 240 242 257 252 246 155 143 146 144 152 162
320 322 306 290 306 244 10 313 248 263 262 292 313 328 316 311 291 223 220 226 241 216 210 233 253 237 257 256 216 206 163 166 222 230 260 291 235 238 203 174 147 148 147 149 159
328 331 318 237 330 98 268 248 256 272 284 310 321 313 319 319 330 313 286 225 223 233 229 234 242 230 239 252 247 249 221 208 211 258 296 254 298 336 123 138 134 135 142 144 155
332 335 26 72 199 159 224 258 280 295 291 299 299 300 312 315 345 7 21 330 359 281 303 210 239 245 260 256 239 206 196 249 328 223 274 291 297 251 280 138 144 148 150 159 155
331 324 181 170 156 213 234 257 289 291 292 290 283 290 305 318 335 332 305 310 15 330 339 330 240 248 232 250 239 262 221 194 156 164 211 239 272 198 29 166 165 156 147 153 159
344 279 180 203 236 224 235 250 267 282 281 286 291 292 284 299 307 315 315 336 329 332 323 303 265 229 264 269 269 248 238 201 152 265 210 185 265 331 304 48 23 147 162 166 169
332 275 247 228 260 273 283 296 308 286 268 292 313 323 326 325 329 297 306 313 331 326 0 331 322 321 293 262 258 241 265 181 170 132 233 160 246 16 356 43 38 59 166 171 168
329 300 253 205 251 275 297 285 312 319 327 340 286 306 318 315 310 311 316 310 353 306 312 302 267 235 233 238 267 165 335 331 187 148 230 223 147 350 11 16 51 62 50 351 148
287 320 357 321 336 323 310 319 312 312 316 349 334 318 271 275 291 301 308 317 331 296 332 70 319 317 307 313 326 63 340 290 286 238 177 228 133 204 197 100 92 89 100 225 298
318 348 337 303 303 307 296 301 302 295 349 330 333 324 321 311 293 298 273 291 266 298 308 102 305 331 307 347 51 84 346 294 347 1 332 103 84 341 37 62 90 119 121 167 279
315 333 338 289 294 292 303 287 298 316 311 312 306 309 316 307 320 315 306 301 267 260 268 118 107 31 323 15 12 51 22 45 48 28 25 74 17 107 59 54 40 66 92 73 59
Wind_Speed_850mb
29 30 30 29 30 31 32 33 33 33 33 35 37 37 37 39 37 38 38 24 23 25 24 26 32 30 26 47 51 55 9 13 15 14 15 23 12 29 46 46 19 4 40 58 52
32 33 34 35 34 32 33 33 34 34 34 35 35 37 39 43 47 45 27 17 19 25 35 31 31 33 28 46 44 16 6 23 17 9 7 30 11 45 16 33 11 53 59 57 57
34 35 36 37 38 39 38 36 35 34 34 35 35 35 37 39 44 15 12 13 21 23 31 26 25 41 48 49 60 40 10 17 37 18 14 14 31 27 44 6 45 63 66 60 55
34 36 38 40 41 41 40 39 40 38 35 35 36 35 34 32 9 10 15 12 19 24 25 29 32 39 28 19 59 20 40 19 37 38 40 5 14 12 20 27 68 65 68 66 57
37 39 39 40 41 43 44 43 41 41 39 36 35 35 32 22 39 35 25 24 25 27 28 31 34 38 23 31 41 18 31 43 47 46 53 32 10 16 26 46 64 71 67 62 54
39 41 41 42 43 43 42 44 44 41 40 39 37 34 29 24 23 26 31 38 31 26 25 27 26 37 49 38 21 41 52 56 58 54 56 39 14 11 17 61 66 74 69 56 51
39 40 43 46 46 46 46 43 42 43 40 38 36 35 34 58 14 18 32 24 21 20 19 24 27 39 44 21 44 49 29 37 29 44 37 54 8 12 26 60 72 72 68 55 56
43 43 44 44 46 47 50 45 42 40 39 37 35 31 31 50 30 35 42 29 20 22 24 28 36 35 23 29 37 23 20 17 35 37 55 15 14 12 42 48 61 68 69 62 63
48 48 47 47 47 48 46 45 41 41 38 34 31 23 28 26 36 45 39 41 31 25 31 37 31 32 22 13 13 15 22 29 39 45 39 13 10 9 31 54 55 63 66 67 66
51 52 51 49 47 48 44 37 34 35 34 29 30 16 40 46 41 36 44 45 40 37 44 42 31 8 9 7 16 21 15 20 30 37 15 14 16 17 22 53 50 61 70 72 78
53 55 54 50 48 45 41 29 45 11 15 21 23 24 49 53 51 54 47 48 47 50 21 40 10 16 25 29 35 34 33 24 17 18 14 15 6 10 17 11 37 54 69 74 81
54 54 54 49 43 28 25 26 33 31 33 47 53 69 65 66 70 60 40 55 41 29 22 13 23 30 33 38 37 35 24 15 18 23 15 18 19 15 12 19 23 58 63 75 77
57 59 57 51 34 16 27 35 28 37 30 55 70 66 69 60 68 70 53 50 22 27 29 29 31 38 41 40 39 23 12 11 17 28 19 12 14 13 18 16 30 72 78 76 89
53 55 55 59 18 24 21 27 28 40 9 14 21 36 55 76 54 71 70 55 29 35 36 28 41 44 42 35 42 15 12 16 23 16 11 8 11 16 17 23 16 41 65 70 86
50 52 51 48 46 37 26 24 34 27 11 17 24 43 47 48 78 55 72 67 35 31 22 37 45 36 31 31 20 16 16 19 21 16 7 14 5 18 13 20 17 19 61 74 95
53 52 59 44 46 15 22 30 19 2 13 16 37 46 37 51 58 70 62 75 70 38 31 44 61 38 30 34 22 13 11 15 12 6 10 17 11 25 20 22 10 17 42 68 86
55 51 51 52 28 28 25 23 3 8 15 20 21 36 45 24 47 46 49 44 31 25 35 36 42 43 43 32 19 11 6 4 9 7 19 16 11 34 10 21 26 36 60 77 86
59 54 44 36 11 9 10 5 10 18 22 28 45 47 37 32 15 36 36 34 41 36 16 34 36 39 47 34 18 14 15 12 16 12 19 10 16 36 28 14 56 67 68 77 84
60 51 42 3 4 12 10 7 8 11 22 36 47 39 44 40 29 18 18 23 37 43 35 27 36 36 45 44 30 16 15 17 7 13 6 12 21 14 31 32 26 41 60 63 81
62 48 18 9 17 8 6 10 15 37 44 39 39 39 37 34 30 31 17 25 26 25 29 36 23 26 33 33 39 24 17 11 4 8 13 15 11 11 9 19 36 27 43 62 73
45 21 7 9 9 11 7 12 30 51 50 33 37 39 34 35 32 32 13 26 27 28 40 23 15 23 34 40 24 9 20 8 13 11 12 8 12 11 8 19 27 27 49 63 63
12 8 16 9 12 13 14 14 29 41 45 36 30 25 17 21 25 30 36 21 40 33 32 12 9 26 37 44 30 23 23 32 11 17 8 10 12 19 13 11 9 51 62 50 67
21 19 23 21 6 12 23 31 46 22 22 24 24 26 27 20 19 23 34 46 33 33 12 12 8 11 5 17 28 19 19 14 13 11 22 10 10 9 18 19 41 29 42 70 72
12 7 10 25 29 18 23 27 32 49 30 31 18 23 22 24 25 19 30 33 25 53 41 26 12 5 7 14 13 13 12 17 10 9 18 14 12 12 13 18 38 58 68 97 58
5 9 26 9 22 33 31 28 26 34 36 36 20 20 18 17 19 20 32 34 30 50 16 9 12 19 20 19 20 24 25 42 30 14 13 18 18 12 11 16 51 78 71 13 46
9 18 30 35 36 30 29 20 31 28 9 15 20 37 30 18 16 26 25 16 17 29 18 5 7 13 14 21 21 23 21 20 17 26 28 14 19 6 13 32 44 66 61 20 48
18 18 23 22 19 19 13 9 33 34 7 13 25 24 29 25 32 50 44 37 23 16 8 6 5 10 10 14 15 12 34 27 25 39 13 10 10 10 27 34 39 42 47 42 28
Wind_Direction_850mb
343 341 340 339 338 336 335 335 335 335 334 333 332 329 328 321 313 301 282 261 270 270 273 287 295 312 309 275 271 269 283 281 302 38 339 158 141 113 135 127 139 64 156 156 149
338 336 334 332 331 329 328 328 328 328 328 327 327 326 327 324 317 304 291 250 257 270 271 276 286 292 274 291 297 286 250 280 297 58 15 305 100 147 116 114 146 100 135 148 150
337 333 330 328 326 325 323 321 319 320 322 322 323 323 323 323 323 328 317 250 246 267 267 259 265 290 295 298 291 294 275 299 305 346 301 330 357 131 129 197 168 143 143 152 156
335 332 331 328 326 322 319 317 316 314 314 316 318 319 321 319 294 328 317 291 269 283 253 228 248 268 285 284 287 302 315 288 298 327 322 314 347 140 186 177 166 164 155 159 159
339 336 332 327 323 321 319 316 313 311 311 309 310 314 320 305 265 287 288 285 278 285 250 219 249 248 267 281 303 336 315 324 322 327 313 304 274 235 122 147 158 156 155 163 163
338 336 333 329 326 322 316 314 312 308 306 305 306 306 308 273 282 269 285 291 274 281 237 219 251 258 268 292 310 308 305 312 308 298 289 290 255 121 105 138 147 151 159 165 172
337 334 331 329 327 323 318 314 307 305 303 299 299 300 286 258 250 268 287 302 249 271 213 228 247 265 288 307 307 306 312 305 296 281 270 276 279 177 170 151 148 155 161 169 178
339 338 334 330 324 321 318 316 310 299 293 293 292 290 268 278 269 235 250 273 264 226 257 260 269 269 282 299 299 300 310 298 282 281 271 237 256 171 177 154 157 160 166 173 179
338 336 335 334 329 324 317 315 311 295 284 279 280 269 266 291 240 229 231 234 238 242 243 254 271 281 288 290 285 264 252 260 271 268 262 163 217 225 183 164 167 163 168 173 170
337 333 333 332 333 328 325 324 315 303 281 275 253 273 256 265 239 234 216 223 224 231 234 245 250 246 275 245 247 252 233 241 247 277 318 198 208 230 250 177 172 167 166 165 163
335 332 330 330 331 331 335 352 1 329 359 267 272 236 279 276 286 231 221 220 219 238 228 224 204 220 232 240 242 254 265 274 284 311 4 306 298 270 298 211 168 161 162 157 161
339 335 329 326 328 335 332 333 325 316 302 290 277 273 267 272 285 279 228 209 212 222 238 256 230 229 237 253 255 257 261 291 320 308 296 283 280 274 275 256 184 165 161 162 158
336 337 334 327 326 322 318 344 335 326 291 281 264 262 255 253 260 262 232 221 206 221 226 227 233 241 235 245 257 260 257 306 281 285 305 305 306 292 255 251 193 169 174 170 160
332 331 338 328 330 319 310 336 336 335 292 274 256 251 240 228 249 247 255 214 223 219 225 237 244 246 252 238 240 222 262 250 259 267 249 253 264 278 242 248 194 159 168 168 165
332 329 331 333 316 319 332 323 334 323 301 296 268 270 234 197 225 238 242 248 248 228 214 239 241 246 249 251 248 232 221 245 270 287 316 290 332 264 258 234 204 183 166 167 172
323 326 319 324 310 334 336 337 326 276 252 272 296 304 307 210 221 234 238 237 238 247 240 234 252 258 256 264 245 214 270 293 295 281 308 248 210 272 258 218 168 168 161 153 164
318 321 311 303 290 305 298 337 290 226 311 282 314 318 315 311 214 217 227 234 216 224 245 257 248 257 264 275 283 159 163 293 316 321 240 242 257 252 246 155 143 146 144 152 162
320 322 306 290 306 244 10 313 248 263 262 292 313 328 316 311 291 223 220 226 241 216 210 233 253 237 257 256 216 206 163 166 222 230 260 291 235 238 203 174 147 148 147 149 159
328 331 318 237 330 98 268 248 256 272 284 310 321 313 319 319 330 313 286 225 223 233 229 234 242 230 239 252 247 249 221 208 211 258 296 254 298 336 123 138 134 135 142 144 155
332 335 26 72 199 159 224 258 280 295 291 299 299 300 312 315 345 7 21 330 359 281 303 210 239 245 260 256 239 206 196 249 328 223 274 291 297 251 280 138 144 148 150 159 155
331 324 181 170 156 213 234 257 289 291 292 290 283 290 305 318 335 332 305 310 15 330 339 330 240 248 232 250 239 262 221 194 156 164 211 239 272 198 29 166 165 156 147 153 159
344 279 180 203 236 224 235 250 267 282 281 286 291 292 284 299 307 315 315 336 329 332 323 303 265 229 264 269 269 248 238 201 152 265 210 185 265 331 304 48 23 147 162 166 169
332 275 247 228 260 273 283 296 308 286 268 292 313 323 326 325 329 297 306 313 331 326 0 331 322 321 293 262 258 241 265 181 170 132 233 160 246 16 356 43 38 59 166 171 168
329 300 253 205 251 275 297 285 312 319 327 340 286 306 318 315 310 311 316 310 353 306 312 302 267 235 233 238 267 165 335 331 187 148 230 223 147 350 11 16 51 62 50 351 148
287 320 357 321 336 323 310 319 312 312 316 349 334 318 271 275 291 301 308 317 331 296 332 70 319 317 307 313 326 63 340 290 286 238 177 228 133 204 197 100 92 89 100 225 298
318 348 337 303 303 307 296 301 302 295 349 330 333 324 321 311 293 298 273 291 266 298 308 102 305 331 307 347 51 84 346 294 347 1 332 103 84 341 37 62 90 119 121 167 279
315 333 338 289 294 292 303 287 298 316 311 312 306 309 316 307 320 315 306 301 267 260 268 118 107 31 323 15 12 51 22 45 48 28 25 74 17 107 59 54 40 66 92 73 59